Вернуться в каталог

STARLINK-34889

АктивенСвязьVLEO
NORAD 65761·PAYLOAD·🇺🇸 United States

Запущен Sep 25, 2025 с Cape Canaveral Space Force Station

Loading…

Ближайшие Пролёты (ближайшие 24 часа)

TLE

СвежийSource: CelesTrak SupGP

Эпоха: Sep 14, 2026, 22:51 UTC

1 65761C 25216AD  26257.95256944 -.00096009  00000+0 -28360-2 0  2570
2 65761  53.1575 171.5541 0001255  92.3284 208.6164 15.34445289    11

Отслеживайте STARLINK-34889 в реальном времени с AllMySat

Download on the App Store